[[[{"header":{"parameterUnit":"kt","parameterCategory":2,"dx":1,"dy":1,"la1":30.253999710083008,"la2":30.299108505249023,"lo1":-89.0895004272461,"lo2":-89.04439544677734,"nx":28,"ny":28,"refTime":"2022-09-25T21:00:00:Z","depth":"0","parameterNumber":2,"parameterNumberName":"U-component_of_CURRENTS"},"data":[-0.2083,-0.1998,-0.1941,-0.1766,-0.1688,-0.1551,-0.151,-0.139,-0.1351,-0.1268,-0.1303,-0.1362,-0.1528,-0.1641,-0.1648,-0.1709,-0.1476,-0.1588,-0.1312,-0.1504,-0.1524,-0.1542,-0.1475,-0.1335,-0.1333,-0.1077,-0.1072,-0.1068,-0.2114,-0.2049,-0.1977,-0.1855,-0.1773,-0.1758,-0.1716,-0.163,-0.1613,-0.1635,-0.1681,-0.1917,-0.2107,-0.2321,-0.2541,-0.232,-0.2373,-0.2094,-0.2086,-0.1971,-0.2428,-0.2403,-0.246,-0.246,-0.246,-0.246,-0.2461,-0.2461,-0.2137,-0.2102,-0.2017,-0.1936,-0.1881,-0.182,-0.176,-0.1773,-0.1787,-0.1811,-0.2004,-0.201,-0.2364,-0.2547,-0.2587,-0.2645,-0.2514,-0.2512,-0.2259,-0.2328,-0.2173,-0.2676,-0.2795,-0.2794,-0.2793,-0.2793,-0.2792,0,-0.2142,-0.2108,-0.2058,-0.1974,-0.1927,-0.1874,-0.1857,-0.1873,-0.1927,-0.198,-0.2099,-0.2156,-0.2362,-0.2502,-0.26,-0.2602,-0.2422,-0.2618,-0.2382,-0.215,-0.2196,-0.2068,-0.2529,-0.2631,-0.2629,-0.2628,-0.2627,-0.2627,-0.2155,-0.2107,-0.2034,-0.1996,-0.1969,-0.1938,-0.1914,-0.1932,-0.1951,-0.2078,-0.2114,-0.2225,-0.2282,-0.2393,-0.2503,-0.2537,-0.2316,-0.2577,-0.2517,-0.2303,-0.2062,-0.21,-0.1979,-0.2608,-0.261,-0.2612,-0.2614,0,-0.217,-0.2109,-0.2049,-0.2004,-0.1989,-0.1977,-0.1957,-0.1962,-0.2011,-0.2061,-0.208,-0.2203,-0.2273,-0.2305,-0.2344,-0.2363,-0.2298,-0.2393,-0.2448,-0.2467,-0.2296,-0.2071,-0.2118,-0.1982,-0.2457,-0.2459,-0.246,0,-0.2182,-0.2135,-0.2072,-0.204,-0.2009,-0.2001,-0.1994,-0.2017,-0.2054,-0.2084,-0.2132,-0.2185,-0.2212,-0.2265,-0.2247,-0.2294,-0.229,-0.2271,-0.2286,-0.2324,-0.2331,-0.2156,-0.1931,-0.2232,-0.2231,-0.2231,-0.223,0,-0.2249,-0.2147,-0.2081,-0.206,-0.2023,-0.202,-0.2016,-0.2055,-0.2063,-0.2119,-0.2148,-0.2174,-0.2195,-0.2196,-0.2206,-0.2177,-0.2249,-0.2216,-0.2255,-0.2259,-0.2315,-0.2323,-0.2181,-0.2229,-0.2229,-0.2229,-0.2229,0,-0.2266,-0.2212,-0.2118,-0.2086,-0.2069,-0.2046,-0.2075,-0.206,-0.2107,-0.2122,-0.2138,-0.2156,-0.2154,-0.2126,-0.2146,-0.2128,-0.2125,-0.2126,-0.2129,-0.2163,-0.2166,-0.2275,-0.2348,-0.2136,-0.2174,-0.2173,-0.2173,0,-0.2352,-0.2242,-0.222,-0.2146,-0.2097,-0.2118,-0.2104,-0.2118,-0.2132,-0.2144,-0.2146,-0.213,-0.2096,-0.2086,-0.208,-0.2086,-0.2088,-0.2053,-0.2111,-0.2113,-0.2138,-0.2192,-0.2248,-0.233,-0.2163,-0.2164,-0.2165,0,-0.2424,-0.2332,-0.2316,-0.2279,-0.2234,-0.2225,-0.2198,-0.2189,-0.2195,-0.2159,-0.2162,-0.2092,-0.2105,-0.2076,-0.2052,-0.2045,-0.2074,-0.2035,-0.2036,-0.206,-0.2133,-0.2174,-0.2185,-0.2071,-0.2072,-0.2073,-0.2157,0,-0.2414,-0.2383,-0.2359,-0.229,-0.2285,-0.2253,-0.2235,-0.2233,-0.2219,-0.2206,-0.2186,-0.214,-0.2099,-0.2076,-0.2042,-0.2033,-0.2044,-0.2036,-0.2005,-0.2031,-0.2067,-0.2073,-0.1996,-0.1996,-0.1995,-0.1995,0,0,-0.2481,-0.2432,-0.2444,-0.2387,-0.2364,-0.2369,-0.232,-0.2309,-0.2257,-0.2254,-0.2224,-0.2152,-0.2098,-0.2058,-0.204,-0.2031,-0.2048,-0.1978,-0.2021,-0.2024,-0.2027,-0.2061,-0.2068,-0.1995,-0.1995,-0.1995,-0.1994,0,-0.2459,-0.2482,-0.2451,-0.2431,-0.2388,-0.2368,-0.2368,-0.2318,-0.2297,-0.2256,-0.2213,-0.2184,-0.2097,-0.2051,-0.202,-0.2031,-0.1999,-0.201,-0.1998,-0.2018,-0.2022,-0.2024,-0.2059,-0.2065,-0.1994,-0.1994,-0.1994,0,-0.247,-0.2447,-0.2454,-0.2433,-0.2397,-0.2355,-0.2352,-0.2329,-0.2297,-0.2251,-0.2177,-0.2151,-0.2095,-0.204,-0.2014,-0.1995,-0.1968,-0.1949,-0.1951,-0.1943,-0.1963,-0.1967,-0.197,-0.1922,-0.1921,-0.1921,0,0,-0.2448,-0.2451,-0.2419,-0.2424,-0.2405,-0.2367,-0.2357,-0.2328,-0.2284,-0.2265,-0.2197,-0.2136,-0.2094,-0.2051,-0.2007,-0.1968,-0.1976,-0.1939,-0.1943,-0.1945,-0.1939,-0.196,-0.1964,-0.192,-0.192,-0.192,0,0,-0.2427,-0.2396,-0.2385,-0.2391,-0.2369,-0.2318,-0.2305,-0.2294,-0.2256,-0.2234,-0.2159,-0.2136,-0.2088,-0.2052,-0.2047,-0.1965,-0.1954,-0.1954,-0.1965,-0.1969,-0.1973,-0.1972,-0.1958,0,0,0,0,0,-0.2389,-0.2406,-0.2397,-0.2393,-0.2358,-0.2336,-0.233,-0.2277,-0.2257,-0.2258,-0.22,-0.2138,-0.2027,-0.202,-0.2005,-0.1969,-0.1905,-0.1907,-0.191,-0.1918,-0.1922,-0.1926,0,0,0,0,0,0,-0.2387,-0.2383,-0.2396,-0.235,-0.2341,-0.2335,-0.228,-0.2266,-0.2254,-0.2244,-0.2155,-0.2136,-0.2069,-0.2023,-0.201,-0.1976,-0.1962,-0.1906,-0.1908,-0.191,-0.1919,-0.1923,-0.1926,0,0,0,0,0,-0.2385,-0.2381,-0.2338,-0.2349,-0.2342,-0.2281,-0.2277,-0.2266,-0.2254,-0.2161,-0.2142,-0.2214,-0.2072,-0.2055,-0.2015,-0.1983,-0.197,-0.1966,-0.1907,-0.1909,-0.1911,-0.1921,0,0,0,0,0,0,-0.2384,-0.2372,-0.2335,-0.2331,-0.2328,-0.2279,-0.2269,-0.2266,-0.217,-0.2153,-0.2214,-0.2207,-0.2075,-0.2061,-0.2048,-0.1988,-0.1977,-0.1972,-0.1969,-0.1908,-0.191,-0.1911,0,0,0,0,0,0,-0.2373,-0.2369,-0.2333,-0.2309,-0.2302,-0.2278,-0.2269,-0.2232,-0.2167,-0.2227,-0.2219,-0.2212,-0.2071,-0.2065,-0.2055,-0.2002,-0.1982,-0.1977,-0.1974,-0.1973,-0.191,-0.1911,0,0,0,0,0,0,-0.237,-0.2366,-0.231,-0.2304,-0.2297,-0.2246,-0.2241,-0.2194,-0.2191,-0.223,-0.2184,-0.2181,-0.2076,-0.2065,-0.206,-0.2012,-0.2004,-0.1981,-0.1979,-0.1976,-0.1975,0,0,0,0,0,0,0,-0.2368,-0.2407,-0.236,-0.23,-0.2294,-0.2292,-0.2291,-0.229,-0.2191,-0.2188,-0.2185,-0.2183,-0.2006,-0.2001,-0.1996,-0.2021,0,0,-0.1982,-0.198,0,0,0,0,0,0,0,0,-0.2407,-0.2407,-0.236,-0.2359,-0.2358,-0.2292,-0.2291,-0.229,-0.219,-0.2188,-0.2186,-0.2184,-0.2004,-0.2001,-0.1997,0,0,0,0,0,0,0,0,0,0,0,0,0,0,0,-0.236,-0.2359,0,-0.2292,-0.2291,-0.229,-0.219,-0.2188,-0.2186,-0.2184,-0.2003,-0.2,-0.1997,0,0,0,0,0,0,0,0,0,0,0,0,0,0,0,0,0,0,0,0,0,0,0,0,0,0,0,0,0,0,0,0,0,0,0,0,0,0,0,0,0,0,0,0,0,0,0,0,0,0,0,0,0,0,0,0,0,0,0,0,0,0,0,0,0,0,0,0,0]}],[{"header":{"parameterUnit":"kt","parameterCategory":2,"dx":1,"dy":1,"la1":30.253999710083008,"la2":30.299108505249023,"lo1":-89.0895004272461,"lo2":-89.04439544677734,"nx":28,"ny":28,"refTime":"2022-09-25T21:00:00:Z","depth":"0","parameterNumber":3,"parameterNumberName":"V-component_of_CURRENTS"},"data":[-0.2472,-0.2507,-0.2546,-0.2686,-0.2756,-0.2905,-0.2976,-0.3111,-0.3325,-0.3676,-0.4001,-0.4221,-0.3502,-0.172,-0.0279,0.0067,0.0989,0.1083,0.1494,0.0652,0.0572,0.0497,0.0632,0.1296,0.1301,0.2897,0.2915,0.2929,-0.2491,-0.2513,-0.2568,-0.2646,-0.2751,-0.2799,-0.2942,-0.304,-0.3211,-0.3461,-0.3612,-0.3858,-0.3498,-0.3106,-0.2353,-0.1527,-0.1161,-0.0895,-0.0309,-0.0118,-0.1677,-0.1636,-0.1444,-0.1445,-0.1445,-0.1446,-0.1447,-0.1447,-0.2514,-0.2518,-0.255,-0.2616,-0.2696,-0.2807,-0.2874,-0.3015,-0.3146,-0.329,-0.3333,-0.3509,-0.3444,-0.3458,-0.3162,-0.2492,-0.235,-0.2196,-0.1715,-0.1512,-0.1178,-0.2933,-0.3023,-0.3024,-0.3025,-0.3026,-0.3027,0,-0.2529,-0.2535,-0.2544,-0.2609,-0.2669,-0.2745,-0.2839,-0.2903,-0.2991,-0.3071,-0.3158,-0.3195,-0.3209,-0.3231,-0.3203,-0.3069,-0.2245,-0.2838,-0.223,-0.1535,-0.1209,-0.0904,-0.259,-0.2656,-0.2655,-0.2654,-0.2654,-0.2653,-0.2521,-0.2536,-0.2563,-0.2589,-0.2597,-0.2664,-0.2732,-0.2786,-0.2864,-0.2914,-0.2962,-0.2953,-0.3005,-0.298,-0.2956,-0.2933,-0.2373,-0.2804,-0.2798,-0.2225,-0.1722,-0.1452,-0.1199,-0.2645,-0.2646,-0.2647,-0.2647,0,-0.2512,-0.251,-0.2538,-0.2567,-0.2583,-0.2623,-0.2697,-0.2767,-0.2791,-0.2864,-0.2869,-0.2846,-0.2837,-0.277,-0.2708,-0.2709,-0.2362,-0.2714,-0.2591,-0.2576,-0.2225,-0.1785,-0.1352,-0.1044,-0.2855,-0.2858,-0.2862,0,-0.2473,-0.2499,-0.2489,-0.2507,-0.2566,-0.2578,-0.266,-0.2677,-0.273,-0.2791,-0.2752,-0.2786,-0.2704,-0.2681,-0.2614,-0.2639,-0.258,-0.2651,-0.2642,-0.2532,-0.2533,-0.2053,-0.1607,-0.2524,-0.2525,-0.2525,-0.2525,0,-0.2432,-0.2434,-0.2462,-0.2471,-0.2492,-0.2531,-0.2558,-0.2605,-0.2648,-0.2674,-0.269,-0.2696,-0.2687,-0.2653,-0.2578,-0.2552,-0.2547,-0.2507,-0.2602,-0.2608,-0.2537,-0.2537,-0.2037,-0.2525,-0.2525,-0.2525,-0.2525,0,-0.2377,-0.2379,-0.2393,-0.244,-0.245,-0.2456,-0.2545,-0.2559,-0.2599,-0.2602,-0.2621,-0.26,-0.2615,-0.256,-0.2546,-0.2526,-0.2487,-0.2455,-0.2453,-0.26,-0.2553,-0.2478,-0.2487,-0.1916,-0.2395,-0.2394,-0.2394,0,-0.2387,-0.2373,-0.2359,-0.2373,-0.2385,-0.2407,-0.2427,-0.2456,-0.2462,-0.2479,-0.2496,-0.2501,-0.2458,-0.2458,-0.2462,-0.2428,-0.2436,-0.2422,-0.2403,-0.2403,-0.2555,-0.2586,-0.2482,-0.2475,-0.2386,-0.2387,-0.2387,0,-0.2397,-0.2353,-0.2358,-0.2384,-0.2379,-0.2379,-0.2379,-0.2422,-0.2471,-0.2399,-0.2461,-0.2427,-0.2417,-0.2429,-0.2413,-0.2419,-0.2418,-0.2372,-0.2373,-0.2394,-0.2419,-0.2554,-0.2572,-0.2394,-0.2396,-0.2397,-0.2381,0,-0.2442,-0.2426,-0.2389,-0.2394,-0.238,-0.2365,-0.2385,-0.2359,-0.2365,-0.2385,-0.2379,-0.2333,-0.2348,-0.232,-0.2318,-0.2349,-0.2319,-0.231,-0.2348,-0.2334,-0.2319,-0.2324,-0.2265,-0.2265,-0.2265,-0.2265,0,0,-0.252,-0.2492,-0.246,-0.2444,-0.2459,-0.2459,-0.2463,-0.2449,-0.2406,-0.2428,-0.2386,-0.2356,-0.2326,-0.2374,-0.2354,-0.2301,-0.2289,-0.2331,-0.2317,-0.2323,-0.2328,-0.2316,-0.2321,-0.2265,-0.2265,-0.2265,-0.2265,0,-0.2561,-0.2532,-0.2486,-0.2481,-0.2471,-0.2487,-0.2478,-0.2463,-0.247,-0.2412,-0.2436,-0.241,-0.232,-0.2354,-0.2366,-0.2298,-0.2313,-0.226,-0.2302,-0.2315,-0.2321,-0.2326,-0.2315,-0.2319,-0.2265,-0.2265,-0.2265,0,-0.2647,-0.2645,-0.2611,-0.2589,-0.2578,-0.2568,-0.2607,-0.2566,-0.2579,-0.2565,-0.2506,-0.2474,-0.247,-0.2412,-0.238,-0.2393,-0.234,-0.2327,-0.2325,-0.237,-0.2387,-0.2392,-0.2396,-0.2353,-0.2354,-0.2354,0,0,-0.2695,-0.2646,-0.2663,-0.2606,-0.2597,-0.2615,-0.2597,-0.2615,-0.2593,-0.2578,-0.2541,-0.2512,-0.2498,-0.2469,-0.2421,-0.2349,-0.2367,-0.2341,-0.2337,-0.2333,-0.2375,-0.2391,-0.2395,-0.2356,-0.2356,-0.2357,0,0,-0.2721,-0.272,-0.2741,-0.2682,-0.267,-0.2678,-0.2629,-0.2662,-0.2616,-0.2616,-0.2619,-0.2606,-0.2535,-0.2509,-0.254,-0.2458,-0.2471,-0.2462,-0.249,-0.2484,-0.2479,-0.255,-0.2584,0,0,0,0,0,-0.2783,-0.2721,-0.274,-0.2735,-0.2708,-0.2672,-0.2666,-0.2678,-0.2716,-0.2676,-0.2655,-0.2674,-0.2532,-0.2558,-0.254,-0.2538,-0.2385,-0.238,-0.2375,-0.2391,-0.2385,-0.2381,0,0,0,0,0,0,-0.2781,-0.2775,-0.2742,-0.2751,-0.2745,-0.2674,-0.2737,-0.2738,-0.2719,-0.2724,-0.2679,-0.2673,-0.2667,-0.2567,-0.2551,-0.255,-0.2589,-0.2383,-0.2378,-0.2375,-0.2389,-0.2385,-0.2381,0,0,0,0,0,-0.278,-0.2775,-0.2731,-0.2751,-0.2746,-0.2751,-0.2739,-0.274,-0.2722,-0.2699,-0.2694,-0.2732,-0.2667,-0.2652,-0.2557,-0.2558,-0.26,-0.2594,-0.238,-0.2377,-0.2374,-0.2387,0,0,0,0,0,0,-0.2779,-0.2769,-0.273,-0.2728,-0.2773,-0.2754,-0.2753,-0.2742,-0.2697,-0.2694,-0.2752,-0.2756,-0.2665,-0.2654,-0.2643,-0.2563,-0.2609,-0.2603,-0.2599,-0.2377,-0.2375,-0.2372,0,0,0,0,0,0,-0.2772,-0.2768,-0.2729,-0.2756,-0.2757,-0.2757,-0.2755,-0.2686,-0.2694,-0.2751,-0.2754,-0.2754,-0.267,-0.2655,-0.2647,-0.2539,-0.2616,-0.261,-0.2606,-0.2604,-0.2375,-0.2373,0,0,0,0,0,0,-0.277,-0.2767,-0.2756,-0.2757,-0.2759,-0.274,-0.2693,-0.2655,-0.2749,-0.2751,-0.2755,-0.2757,-0.2669,-0.2661,-0.2649,-0.2545,-0.254,-0.2616,-0.2612,-0.2609,-0.2607,0,0,0,0,0,0,0,-0.2769,-0.2794,-0.2742,-0.2759,-0.276,-0.2715,-0.2714,-0.2713,-0.275,-0.2752,-0.2754,-0.2756,-0.2649,-0.2643,-0.2636,-0.255,0,0,-0.2616,-0.2613,0,0,0,0,0,0,0,0,-0.2796,-0.2795,-0.2742,-0.2742,-0.2742,-0.2714,-0.2714,-0.2713,-0.275,-0.2752,-0.2754,-0.2755,-0.2647,-0.2642,-0.2637,0,0,0,0,0,0,0,0,0,0,0,0,0,0,0,-0.2742,-0.2742,0,-0.2714,-0.2714,-0.2713,-0.275,-0.2752,-0.2753,-0.2755,-0.2646,-0.2641,-0.2637,0,0,0,0,0,0,0,0,0,0,0,0,0,0,0,0,0,0,0,0,0,0,0,0,0,0,0,0,0,0,0,0,0,0,0,0,0,0,0,0,0,0,0,0,0,0,0,0,0,0,0,0,0,0,0,0,0,0,0,0,0,0,0,0,0,0,0,0,0]}]],[[{"header":{"parameterUnit":"kt","parameterCategory":2,"dx":1,"dy":1,"la1":30.253999710083008,"la2":30.299108505249023,"lo1":-89.0895004272461,"lo2":-89.04439544677734,"nx":28,"ny":28,"refTime":"2022-09-25T21:00:00:Z","depth":"2","parameterNumber":2,"parameterNumberName":"U-component_of_CURRENTS"},"data":[-0.1296,-0.1276,-0.131,-0.1418,-0.1508,-0.1615,-0.1698,-0.1748,-0.1941,-0.2065,-0.2128,-0.2457,-0.2162,-0.1735,-0.133,-0.0944,-0.1028,-0.0809,-0.1556,-0.1382,-0.1431,-0.1272,-0.1323,0,0,0,0,0,-0.1392,-0.1397,-0.1444,-0.1578,-0.169,-0.1784,-0.2001,-0.2072,-0.2173,-0.2415,-0.2493,-0.2251,-0.2065,-0.1872,-0.1518,-0.1417,-0.13,-0.1158,-0.0949,-0.0996,-0.104,-0.1045,-0.0569,-0.0569,-0.0569,-0.0568,0,0,-0.1559,-0.1546,-0.1615,-0.1703,-0.1827,-0.1993,-0.2063,-0.2262,-0.2402,-0.2545,-0.2637,-0.2598,-0.243,-0.2346,-0.2088,-0.1847,-0.2045,-0.1733,-0.1743,-0.1761,-0.1805,-0.1805,-0.1531,-0.1536,-0.154,-0.1544,-0.1548,0,-0.1732,-0.176,-0.1815,-0.1912,-0.1993,-0.2151,-0.2298,-0.2393,-0.2641,-0.27,-0.2749,-0.2731,-0.2685,-0.2478,-0.2414,-0.2243,-0.2144,-0.2008,-0.2522,-0.1812,-0.1797,-0.1799,-0.1841,-0.1522,-0.1528,-0.1532,-0.1535,-0.1537,-0.1943,-0.1926,-0.209,-0.2139,-0.2199,-0.23,-0.2387,-0.2609,-0.2703,-0.2853,-0.2864,-0.287,-0.2848,-0.2719,-0.2703,-0.2577,-0.2588,-0.2116,-0.2161,-0.2669,-0.267,-0.2687,-0.2704,-0.1594,-0.1587,-0.1581,-0.1576,0,-0.2057,-0.2173,-0.2225,-0.2393,-0.2444,-0.2461,-0.2681,-0.2729,-0.2848,-0.2904,-0.2925,-0.3019,-0.2963,-0.2928,-0.2786,-0.2778,-0.2665,-0.2615,-0.2232,-0.2182,-0.269,-0.2708,-0.2529,-0.253,-0.253,-0.2531,-0.2531,0,-0.2297,-0.2322,-0.25,-0.2511,-0.2549,-0.2724,-0.2751,-0.2834,-0.2942,-0.2991,-0.3077,-0.3077,-0.3074,-0.3008,-0.2939,-0.284,-0.2786,-0.2798,-0.2782,-0.2451,-0.2431,-0.2819,-0.2834,-0.2718,-0.272,-0.2722,-0.2723,0,-0.2417,-0.2587,-0.2599,-0.2663,-0.2852,-0.2853,-0.2942,-0.3023,-0.3087,-0.3115,-0.3136,-0.3118,-0.3116,-0.3031,-0.3001,-0.3037,-0.2843,-0.2882,-0.2835,-0.2836,-0.2453,-0.243,-0.2726,-0.2726,-0.2726,-0.2727,-0.2728,0,-0.2615,-0.2687,-0.2735,-0.2894,-0.2919,-0.2974,-0.3025,-0.3111,-0.3156,-0.3177,-0.3175,-0.3205,-0.3188,-0.3211,-0.3104,-0.3172,-0.309,-0.3047,-0.3037,-0.3087,-0.3115,-0.2537,-0.2397,-0.2925,-0.2927,-0.293,-0.2932,0,-0.2686,-0.2764,-0.2866,-0.2943,-0.2988,-0.3093,-0.3152,-0.3216,-0.3245,-0.3255,-0.3253,-0.3273,-0.331,-0.331,-0.3273,-0.3257,-0.3168,-0.3276,-0.3082,-0.3075,-0.3116,-0.3086,-0.2693,-0.2452,-0.2963,-0.296,-0.2958,0,-0.2732,-0.2886,-0.2883,-0.2926,-0.3062,-0.3125,-0.3174,-0.3242,-0.3229,-0.3283,-0.3262,-0.3319,-0.3311,-0.3323,-0.3349,-0.3305,-0.3215,-0.3306,-0.3303,-0.3175,-0.3043,-0.3118,-0.3103,-0.3232,-0.323,-0.3228,-0.2983,0,-0.2875,-0.2915,-0.2926,-0.3008,-0.3084,-0.3127,-0.3235,-0.3257,-0.3252,-0.33,-0.3296,-0.3338,-0.3347,-0.3362,-0.3396,-0.3359,-0.3327,-0.3353,-0.3309,-0.3314,-0.3209,-0.319,-0.3417,-0.3417,-0.3416,-0.3416,0,0,-0.288,-0.2916,-0.298,-0.3037,-0.3086,-0.3147,-0.3191,-0.3247,-0.3329,-0.3317,-0.3314,-0.3345,-0.3356,-0.3366,-0.3395,-0.3418,-0.3361,-0.3369,-0.3338,-0.333,-0.3322,-0.3221,-0.3203,-0.3416,-0.3416,-0.3416,-0.3416,0,-0.2925,-0.295,-0.2954,-0.3043,-0.3115,-0.318,-0.318,-0.3274,-0.3274,-0.3329,-0.3317,-0.3314,-0.3358,-0.3367,-0.3377,-0.3419,-0.3333,-0.3423,-0.3397,-0.334,-0.3332,-0.3324,-0.3224,-0.3207,-0.3415,-0.3415,-0.3415,0,-0.2959,-0.3006,-0.3013,-0.3121,-0.3161,-0.3235,-0.3241,-0.3277,-0.3315,-0.3308,-0.3311,-0.3322,-0.3341,-0.3367,-0.3363,-0.3347,-0.3299,-0.3354,-0.3356,-0.3325,-0.3263,-0.3256,-0.3249,-0.3322,-0.3322,-0.3321,0,0,-0.2987,-0.3,-0.312,-0.314,-0.317,-0.3237,-0.3267,-0.3287,-0.3326,-0.332,-0.3319,-0.3308,-0.3328,-0.3313,-0.3337,-0.3354,-0.3296,-0.334,-0.3345,-0.3348,-0.332,-0.326,-0.3254,-0.3319,-0.3319,-0.3319,0,0,-0.3005,-0.3095,-0.31,-0.3136,-0.3225,-0.3334,-0.3329,-0.3345,-0.3355,-0.3298,-0.3299,-0.3294,-0.3291,-0.3291,-0.3271,-0.3295,-0.3281,-0.3285,-0.3279,-0.3285,-0.3289,-0.3249,-0.3224,0,0,0,0,0,-0.3083,-0.3094,-0.3098,-0.3115,-0.3222,-0.3342,-0.3358,-0.3368,-0.3303,-0.3325,-0.3308,-0.326,-0.3293,-0.3276,-0.3276,-0.3255,-0.3295,-0.3299,-0.3303,-0.3302,-0.3308,-0.3313,0,0,0,0,0,0,-0.309,-0.3111,-0.3099,-0.3206,-0.3231,-0.334,-0.3299,-0.3305,-0.3302,-0.3293,-0.3272,-0.3263,-0.3267,-0.3272,-0.3273,-0.3254,-0.3224,-0.3297,-0.33,-0.3304,-0.3304,-0.3309,-0.3313,0,0,0,0,0,-0.3096,-0.3113,-0.3268,-0.3207,-0.3228,-0.3265,-0.3295,-0.3299,-0.3279,-0.3301,-0.3291,-0.3275,-0.3271,-0.3266,-0.3273,-0.3254,-0.3223,-0.3224,-0.3299,-0.3302,-0.3305,-0.3306,0,0,0,0,0,0,-0.3101,-0.3125,-0.3273,-0.3282,-0.3162,-0.3258,-0.3268,-0.3294,-0.3283,-0.3279,-0.3306,-0.33,-0.3275,-0.327,-0.3267,-0.3254,-0.3222,-0.3223,-0.3223,-0.3301,-0.3304,-0.3306,0,0,0,0,0,0,-0.3117,-0.3132,-0.3278,-0.3221,-0.3224,-0.3251,-0.326,-0.3278,-0.3278,-0.3287,-0.3284,-0.3303,-0.3234,-0.3274,-0.327,-0.3303,-0.3222,-0.3222,-0.3223,-0.3223,-0.3303,-0.3305,0,0,0,0,0,0,-0.3124,-0.3138,-0.3219,-0.3221,-0.3223,-0.3322,-0.3262,-0.3339,-0.3324,-0.3284,-0.3313,-0.3308,-0.3236,-0.3235,-0.3274,-0.3309,-0.3305,-0.3222,-0.3222,-0.3222,-0.3223,0,0,0,0,0,0,0,-0.313,-0.3027,-0.3222,-0.322,-0.3222,-0.3364,-0.3367,-0.3369,-0.3323,-0.3318,-0.3314,-0.331,-0.322,-0.322,-0.3221,-0.3313,0,0,-0.3222,-0.3222,0,0,0,0,0,0,0,0,-0.3023,-0.3026,-0.3222,-0.3224,-0.3226,-0.3365,-0.3366,-0.3368,-0.3322,-0.3318,-0.3315,-0.3311,-0.322,-0.322,-0.322,0,0,0,0,0,0,0,0,0,0,0,0,0,0,0,-0.3223,-0.3224,0,-0.3365,-0.3366,-0.3368,-0.3322,-0.3319,-0.3316,-0.3313,-0.322,-0.322,-0.322,0,0,0,0,0,0,0,0,0,0,0,0,0,0,0,0,0,0,0,0,0,0,0,0,0,0,0,0,0,0,0,0,0,0,0,0,0,0,0,0,0,0,0,0,0,0,0,0,0,0,0,0,0,0,0,0,0,0,0,0,0,0,0,0,0,0,0,0,0]}],[{"header":{"parameterUnit":"kt","parameterCategory":2,"dx":1,"dy":1,"la1":30.253999710083008,"la2":30.299108505249023,"lo1":-89.0895004272461,"lo2":-89.04439544677734,"nx":28,"ny":28,"refTime":"2022-09-25T21:00:00:Z","depth":"2","parameterNumber":3,"parameterNumberName":"V-component_of_CURRENTS"},"data":[0.0743,0.0665,0.0602,0.0435,0.0293,0.0165,0.0162,0.0151,0.0298,0.041,0.0846,0.1397,0.206,0.2339,0.2401,0.2452,0.2357,0.2354,0.247,0.261,0.2597,0.2886,0.2776,0,0,0,0,0,0.0739,0.0663,0.0529,0.0362,0.0252,0.0128,0.0144,0.0164,0.0224,0.0397,0.0458,0.1218,0.1722,0.2036,0.2538,0.2663,0.269,0.2473,0.2603,0.2609,0.261,0.252,0.2582,0.2577,0.2572,0.2568,0,0,0.0715,0.0663,0.0536,0.0363,0.022,0.0157,0.0118,0.0141,0.0206,0.039,0.0515,0.0857,0.1328,0.2056,0.2074,0.2296,0.2484,0.265,0.2653,0.2654,0.2571,0.2443,0.2643,0.2641,0.264,0.2638,0.2637,0,0.0705,0.0642,0.0565,0.0368,0.0244,0.0148,0.009,0.0153,0.0257,0.0353,0.054,0.0628,0.1074,0.1555,0.19,0.2125,0.2414,0.2468,0.2285,0.2717,0.2596,0.2653,0.2631,0.2842,0.2841,0.284,0.284,0.2839,0.0707,0.0642,0.0485,0.0398,0.032,0.0194,0.0147,0.0167,0.0263,0.0472,0.0599,0.0789,0.0956,0.1397,0.1868,0.2186,0.2083,0.2443,0.2552,0.2273,0.2333,0.2317,0.2301,0.2829,0.2831,0.2832,0.2833,0,0.0724,0.064,0.0541,0.0443,0.039,0.0317,0.0249,0.0293,0.0381,0.0534,0.0567,0.09,0.1123,0.138,0.1798,0.2013,0.2276,0.2308,0.2343,0.2416,0.2327,0.2307,0.2481,0.2478,0.2476,0.2473,0.2472,0,0.0734,0.0669,0.0552,0.0506,0.0423,0.0419,0.0402,0.047,0.0596,0.0702,0.0878,0.1024,0.1366,0.1577,0.1784,0.202,0.2126,0.2239,0.2317,0.2441,0.2436,0.2395,0.2383,0.2481,0.2479,0.2478,0.2477,0,0.08,0.0697,0.0603,0.0582,0.0566,0.0535,0.0526,0.0676,0.0735,0.0913,0.1003,0.1222,0.1326,0.1568,0.1768,0.1807,0.2125,0.2265,0.2273,0.2265,0.2488,0.2489,0.2475,0.2474,0.2474,0.2473,0.2473,0,0.0839,0.0774,0.0672,0.0637,0.0631,0.0608,0.07,0.0735,0.0933,0.1018,0.1133,0.1271,0.1412,0.144,0.1757,0.1674,0.1825,0.1989,0.2004,0.1926,0.1997,0.2266,0.2362,0.2171,0.2168,0.2166,0.2163,0,0.0924,0.0818,0.0806,0.0743,0.0706,0.0779,0.0815,0.0906,0.1017,0.1139,0.1269,0.1361,0.1371,0.1404,0.1525,0.1752,0.1838,0.1713,0.2085,0.2094,0.1938,0.1981,0.2132,0.2314,0.2127,0.2131,0.2134,0,0.1005,0.0915,0.0905,0.0863,0.0884,0.0917,0.094,0.1033,0.1081,0.1159,0.1247,0.1343,0.1403,0.1465,0.1552,0.1669,0.1782,0.1728,0.1739,0.1768,0.2087,0.1948,0.196,0.1894,0.1898,0.1901,0.2105,0,0.1055,0.0997,0.0973,0.0938,0.0972,0.0967,0.1054,0.1094,0.113,0.1221,0.1311,0.1429,0.1528,0.1567,0.1608,0.1707,0.1731,0.1813,0.1821,0.1853,0.1938,0.1959,0.1732,0.1734,0.1735,0.1737,0,0,0.115,0.1074,0.1105,0.1074,0.1082,0.1172,0.115,0.1222,0.1315,0.1357,0.1345,0.1526,0.158,0.1681,0.1674,0.1735,0.1811,0.1663,0.1833,0.1843,0.1852,0.1934,0.1953,0.1739,0.174,0.1741,0.1741,0,0.1175,0.115,0.109,0.1124,0.1156,0.1227,0.1212,0.1303,0.1331,0.1381,0.1448,0.1508,0.159,0.1671,0.172,0.1751,0.1803,0.1758,0.1675,0.1842,0.1849,0.1857,0.1937,0.1953,0.1745,0.1745,0.1745,0,0.1232,0.1229,0.1199,0.1234,0.1277,0.1298,0.1363,0.1385,0.1403,0.1486,0.1495,0.1567,0.1663,0.171,0.1721,0.1725,0.1815,0.1757,0.1752,0.1722,0.1897,0.1905,0.1912,0.1813,0.1812,0.1812,0,0,0.1255,0.1201,0.1276,0.1251,0.1265,0.1353,0.1387,0.1415,0.1478,0.1493,0.1533,0.1583,0.165,0.1655,0.1723,0.1758,0.1837,0.1756,0.1753,0.175,0.1719,0.1891,0.1899,0.181,0.181,0.181,0,0,0.1291,0.1298,0.1292,0.1264,0.1333,0.146,0.1461,0.1497,0.1545,0.1506,0.157,0.1578,0.1598,0.1646,0.1614,0.1691,0.1718,0.1725,0.162,0.1617,0.1614,0.1555,0.1619,0,0,0,0,0,0.133,0.1295,0.1289,0.1292,0.1366,0.1461,0.1483,0.1525,0.1502,0.1511,0.155,0.154,0.1657,0.1629,0.1642,0.1613,0.1781,0.1786,0.1791,0.1668,0.1664,0.1661,0,0,0,0,0,0,0.1332,0.1333,0.1293,0.1403,0.1422,0.1462,0.1475,0.149,0.15,0.1497,0.1542,0.1544,0.1589,0.1623,0.1635,0.1606,0.1616,0.1783,0.1787,0.1791,0.1666,0.1664,0.1661,0,0,0,0,0,0.1334,0.1335,0.1406,0.1409,0.1425,0.1491,0.1471,0.1484,0.1487,0.1556,0.1559,0.1502,0.1591,0.1598,0.163,0.16,0.1608,0.1612,0.1786,0.1789,0.1792,0.1665,0,0,0,0,0,0,0.1336,0.139,0.1414,0.1426,0.1365,0.149,0.1498,0.1478,0.1544,0.155,0.1521,0.1518,0.1594,0.1599,0.1604,0.1595,0.1602,0.1606,0.1608,0.1788,0.1791,0.1793,0,0,0,0,0,0,0.139,0.1398,0.1421,0.1362,0.1368,0.1488,0.1495,0.1548,0.1541,0.1506,0.1506,0.1518,0.1538,0.16,0.1604,0.1693,0.1597,0.1601,0.1604,0.1605,0.179,0.1793,0,0,0,0,0,0,0.1397,0.1404,0.136,0.1365,0.137,0.1514,0.1536,0.158,0.1567,0.15,0.1557,0.1552,0.1536,0.1544,0.1604,0.1692,0.1693,0.1597,0.16,0.1602,0.1603,0,0,0,0,0,0,0,0.1403,0.1308,0.1333,0.1367,0.1371,0.1534,0.1538,0.1542,0.1566,0.1562,0.1558,0.1554,0.1574,0.1578,0.1583,0.1691,0,0,0.1597,0.1599,0,0,0,0,0,0,0,0,0.1309,0.1308,0.1333,0.1335,0.1336,0.1534,0.1538,0.1541,0.1565,0.1562,0.1559,0.1556,0.1575,0.1579,0.1582,0,0,0,0,0,0,0,0,0,0,0,0,0,0,0,0.1333,0.1335,0,0.1535,0.1538,0.154,0.1565,0.1562,0.156,0.1557,0.1576,0.1579,0.1582,0,0,0,0,0,0,0,0,0,0,0,0,0,0,0,0,0,0,0,0,0,0,0,0,0,0,0,0,0,0,0,0,0,0,0,0,0,0,0,0,0,0,0,0,0,0,0,0,0,0,0,0,0,0,0,0,0,0,0,0,0,0,0,0,0,0,0,0,0]}]],[[{"header":{"parameterUnit":"kt","parameterCategory":2,"dx":1,"dy":1,"la1":30.253999710083008,"la2":30.299108505249023,"lo1":-89.0895004272461,"lo2":-89.04439544677734,"nx":28,"ny":28,"refTime":"2022-09-25T21:00:00:Z","depth":"4","parameterNumber":2,"parameterNumberName":"U-component_of_CURRENTS"},"data":[-0.086,-0.0837,-0.0825,-0.0642,-0.0564,-0.0452,-0.0506,-0.0592,-0.0606,-0.0712,-0.0673,-0.0715,-0.0641,-0.0722,-0.0585,-0.0575,-0.093,-0.0531,-0.0529,-0.121,-0.1253,-0.1292,-0.1475,0,0,0,0,0,-0.0925,-0.0885,-0.0844,-0.0775,-0.0678,-0.0665,-0.0705,-0.0818,-0.0918,-0.0798,-0.1003,-0.0791,-0.0721,-0.0698,-0.0622,-0.0638,-0.0923,-0.0546,-0.1127,-0.1237,-0.1285,-0.1447,0,0,0,0,0,0,-0.0956,-0.094,-0.094,-0.0928,-0.0854,-0.0799,-0.0904,-0.0909,-0.1014,-0.1214,-0.1021,-0.1049,-0.1033,-0.095,-0.0825,-0.0807,-0.0944,-0.1099,-0.1151,-0.1197,-0.1293,-0.1089,-0.0537,0,0,0,0,0,-0.0978,-0.1009,-0.1036,-0.1003,-0.102,-0.1031,-0.1108,-0.1178,-0.133,-0.1508,-0.1411,-0.1515,-0.1201,-0.1239,-0.1093,-0.1099,-0.163,-0.1366,-0.14,-0.1835,-0.1707,-0.1676,-0.1714,-0.1467,-0.1473,-0.1477,-0.1479,0,-0.1013,-0.1028,-0.1104,-0.1094,-0.1177,-0.1299,-0.1328,-0.1579,-0.1601,-0.1751,-0.1718,-0.1805,-0.1894,-0.1506,-0.1624,-0.1564,-0.1579,-0.1486,-0.1949,-0.1787,-0.1737,-0.1766,-0.179,-0.1518,-0.1515,-0.1512,-0.1508,0,-0.1035,-0.1085,-0.1129,-0.1269,-0.1304,-0.1373,-0.1578,-0.163,-0.1893,-0.196,-0.216,-0.238,-0.2288,-0.24,-0.2345,-0.2298,-0.217,-0.1989,-0.227,-0.2218,-0.1854,-0.1864,-0.1581,-0.1567,-0.1555,-0.1545,-0.1537,0,-0.1094,-0.1131,-0.1219,-0.126,-0.1331,-0.1463,-0.1593,-0.1736,-0.1981,-0.1987,-0.2457,-0.2521,-0.2868,-0.282,-0.2869,-0.2556,-0.2723,-0.2471,-0.2389,-0.2885,-0.2888,-0.277,-0.276,-0.2888,-0.2892,-0.2895,-0.2898,0,-0.1115,-0.1184,-0.1223,-0.1271,-0.14,-0.1519,-0.1629,-0.1809,-0.1913,-0.2249,-0.2382,-0.2692,-0.2865,-0.2964,-0.2966,-0.3088,-0.2781,-0.2952,-0.2518,-0.2483,-0.2786,-0.277,-0.2902,-0.2902,-0.2903,-0.2904,-0.2906,0,-0.1178,-0.1193,-0.1236,-0.1348,-0.1384,-0.1462,-0.1681,-0.1771,-0.2005,-0.2128,-0.241,-0.262,-0.2942,-0.3021,-0.3069,-0.3123,-0.3066,-0.3006,-0.2991,-0.2587,-0.2487,-0.2559,-0.2688,-0.2689,-0.2691,-0.2692,-0.2693,0,-0.1216,-0.1216,-0.1272,-0.1344,-0.1384,-0.1549,-0.1656,-0.1779,-0.1915,-0.21,-0.2344,-0.2553,-0.2667,-0.2901,-0.3013,-0.3018,-0.3043,-0.3136,-0.2834,-0.2819,-0.2529,-0.2581,-0.3154,-0.271,-0.2708,-0.2707,-0.2705,0,-0.1231,-0.1298,-0.1314,-0.1356,-0.1472,-0.1495,-0.1642,-0.177,-0.1854,-0.2063,-0.2223,-0.2466,-0.2632,-0.2692,-0.2854,-0.2959,-0.3039,-0.293,-0.2927,-0.2741,-0.2954,-0.2631,-0.2587,-0.314,-0.3143,-0.3145,-0.2717,0,-0.1271,-0.1323,-0.1335,-0.1393,-0.1444,-0.15,-0.1581,-0.1727,-0.1847,-0.1904,-0.2102,-0.2277,-0.2465,-0.2538,-0.2592,-0.2799,-0.264,-0.2685,-0.2661,-0.2802,-0.2577,-0.2569,-0.2592,-0.2587,-0.2583,-0.258,0,0,-0.1311,-0.133,-0.1385,-0.1393,-0.1436,-0.1522,-0.1551,-0.1637,-0.1763,-0.1839,-0.1877,-0.2109,-0.2203,-0.2389,-0.249,-0.2506,-0.2411,-0.2553,-0.2726,-0.2743,-0.2758,-0.2555,-0.2552,-0.2573,-0.2571,-0.257,-0.2569,0,-0.1299,-0.1377,-0.1378,-0.1426,-0.1462,-0.1504,-0.1529,-0.1621,-0.1703,-0.1824,-0.1857,-0.2022,-0.2122,-0.2231,-0.2273,-0.2441,-0.2332,-0.2454,-0.2644,-0.2692,-0.2714,-0.2733,-0.254,-0.254,-0.2559,-0.2559,-0.256,0,-0.1331,-0.1331,-0.1356,-0.1394,-0.1442,-0.1475,-0.1503,-0.1551,-0.1603,-0.1646,-0.1806,-0.1862,-0.1892,-0.2042,-0.2103,-0.2106,-0.2276,-0.2285,-0.2304,-0.2256,-0.2295,-0.2321,-0.2345,-0.2041,-0.204,-0.2039,0,0,-0.1319,-0.1349,-0.1367,-0.1387,-0.1412,-0.1474,-0.1506,-0.1537,-0.1597,-0.1652,-0.1741,-0.1813,-0.1858,-0.1954,-0.1959,-0.2139,-0.2035,-0.2231,-0.2255,-0.2276,-0.2241,-0.2285,-0.231,-0.2036,-0.2036,-0.2036,0,0,-0.1303,-0.1317,-0.1351,-0.1366,-0.1406,-0.1435,-0.1477,-0.1523,-0.1635,-0.1656,-0.1698,-0.1714,-0.1818,-0.184,-0.1796,-0.2021,-0.1905,-0.1915,-0.2083,-0.2112,-0.2136,-0.2085,-0.1765,0,0,0,0,0,-0.1295,-0.1305,-0.1335,-0.1337,-0.1395,-0.1423,-0.144,-0.1485,-0.1527,-0.1584,-0.1656,-0.165,-0.1819,-0.178,-0.1798,-0.194,-0.1996,-0.2003,-0.201,-0.2253,-0.2284,-0.2311,0,0,0,0,0,0,-0.1295,-0.1298,-0.1333,-0.135,-0.1361,-0.1424,-0.1431,-0.1449,-0.1522,-0.1532,-0.1639,-0.165,-0.1661,-0.1771,-0.1788,-0.1924,-0.176,-0.1999,-0.2005,-0.201,-0.2263,-0.2289,-0.2311,0,0,0,0,0,-0.1295,-0.1297,-0.1373,-0.1354,-0.1363,-0.1412,-0.1433,-0.1447,-0.1553,-0.1556,-0.1574,-0.1582,-0.166,-0.1677,-0.1781,-0.1918,-0.1749,-0.1755,-0.2003,-0.2008,-0.2012,-0.2276,0,0,0,0,0,0,-0.1294,-0.1364,-0.1377,-0.1382,-0.1339,-0.1414,-0.1428,-0.1446,-0.1578,-0.1591,-0.1491,-0.1495,-0.1659,-0.1673,-0.1686,-0.1918,-0.174,-0.1746,-0.175,-0.2007,-0.201,-0.2014,0,0,0,0,0,0,-0.136,-0.1369,-0.1381,-0.136,-0.1365,-0.1415,-0.1427,-0.1489,-0.158,-0.1513,-0.1517,-0.149,-0.1613,-0.167,-0.1681,-0.178,-0.1733,-0.1739,-0.1743,-0.1745,-0.201,-0.2013,0,0,0,0,0,0,-0.1365,-0.1373,-0.1362,-0.1365,-0.1369,-0.1452,-0.1474,-0.1536,-0.1552,-0.151,-0.1551,-0.155,-0.1607,-0.1621,-0.1677,-0.1771,-0.1778,-0.1733,-0.1737,-0.174,-0.1742,0,0,0,0,0,0,0,-0.1369,-0.1301,-0.1314,-0.1369,-0.1373,-0.1421,-0.1425,-0.143,-0.1552,-0.1552,-0.1551,-0.1551,-0.1699,-0.1706,-0.1712,-0.1764,0,0,-0.1732,-0.1735,0,0,0,0,0,0,0,0,-0.1299,-0.1301,-0.1314,-0.1313,-0.1312,-0.1421,-0.1425,-0.1429,-0.1552,-0.1552,-0.1551,-0.1551,-0.1701,-0.1706,-0.1712,0,0,0,0,0,0,0,0,0,0,0,0,0,0,0,-0.1314,-0.1313,0,-0.1422,-0.1425,-0.1428,-0.1552,-0.1552,-0.1551,-0.1551,-0.1703,-0.1707,-0.1711,0,0,0,0,0,0,0,0,0,0,0,0,0,0,0,0,0,0,0,0,0,0,0,0,0,0,0,0,0,0,0,0,0,0,0,0,0,0,0,0,0,0,0,0,0,0,0,0,0,0,0,0,0,0,0,0,0,0,0,0,0,0,0,0,0,0,0,0,0]}],[{"header":{"parameterUnit":"kt","parameterCategory":2,"dx":1,"dy":1,"la1":30.253999710083008,"la2":30.299108505249023,"lo1":-89.0895004272461,"lo2":-89.04439544677734,"nx":28,"ny":28,"refTime":"2022-09-25T21:00:00:Z","depth":"4","parameterNumber":3,"parameterNumberName":"V-component_of_CURRENTS"},"data":[-0.0986,-0.1044,-0.107,-0.1155,-0.1231,-0.1325,-0.1342,-0.1316,-0.1112,-0.0979,-0.0714,-0.0513,-0.008,-0.0301,0.038,0.0452,0.0484,0.0895,0.0904,0.0859,0.0835,0.0814,0.0492,0,0,0,0,0,-0.0965,-0.1011,-0.1087,-0.1207,-0.1281,-0.135,-0.1385,-0.1423,-0.1352,-0.1024,-0.101,-0.0608,-0.0111,0.0032,0.0377,0.0276,0.0561,0.0683,0.0638,0.0844,0.0818,0.0514,0,0,0,0,0,0,-0.0955,-0.1004,-0.1081,-0.119,-0.1291,-0.1354,-0.1439,-0.1333,-0.1335,-0.1162,-0.1002,-0.0684,-0.05,-0.0061,0.0247,0.0542,0.0611,0.0708,0.069,0.0667,0.0414,0.0381,0.0887,0,0,0,0,0,-0.0934,-0.0989,-0.1069,-0.1178,-0.1292,-0.1418,-0.1512,-0.151,-0.153,-0.1558,-0.1202,-0.0922,-0.0509,-0.0187,0.017,0.0473,0.0363,0.0601,0.0588,0.0374,0.0359,0.0398,0.0353,0.0717,0.0714,0.0712,0.071,0,-0.0922,-0.0961,-0.1112,-0.118,-0.1272,-0.1423,-0.1513,-0.1652,-0.166,-0.1578,-0.1503,-0.1207,-0.1067,-0.0367,-0.0219,0.0263,0.0296,0.0531,0.03,0.0312,0.0366,0.0326,0.0288,0.0689,0.0691,0.0692,0.0694,0,-0.0912,-0.097,-0.1066,-0.1209,-0.1273,-0.1371,-0.1563,-0.1631,-0.1708,-0.1697,-0.168,-0.1567,-0.119,-0.0982,-0.0552,-0.037,-0.0021,0.0159,-0.0162,-0.0099,0.0267,0.0237,0.0654,0.0662,0.0668,0.0674,0.0678,0,-0.0914,-0.0983,-0.1086,-0.1142,-0.1269,-0.1361,-0.151,-0.1601,-0.1704,-0.1701,-0.1724,-0.1658,-0.1484,-0.1221,-0.0975,-0.0513,-0.0549,-0.0249,-0.0151,-0.0534,-0.0556,-0.0515,-0.054,-0.0352,-0.0357,-0.0361,-0.0364,0,-0.0887,-0.0999,-0.1075,-0.1124,-0.1257,-0.1349,-0.1436,-0.155,-0.1609,-0.1685,-0.1691,-0.1655,-0.1559,-0.1342,-0.1017,-0.1067,-0.0615,-0.0649,-0.0298,-0.0281,-0.0549,-0.0566,-0.0369,-0.037,-0.0371,-0.0373,-0.0374,0,-0.0906,-0.0952,-0.1046,-0.1171,-0.1208,-0.1293,-0.1437,-0.1498,-0.1589,-0.1635,-0.1687,-0.1673,-0.1579,-0.1554,-0.1227,-0.1339,-0.1078,-0.0926,-0.0902,-0.0815,-0.0756,-0.063,-0.0561,-0.0566,-0.057,-0.0574,-0.0578,0,-0.0869,-0.0948,-0.1003,-0.1109,-0.1161,-0.1242,-0.1316,-0.1388,-0.1443,-0.1518,-0.1538,-0.1594,-0.1565,-0.1569,-0.1474,-0.1319,-0.1139,-0.1341,-0.0928,-0.0914,-0.0755,-0.067,-0.1191,-0.0638,-0.063,-0.0625,-0.0621,0,-0.0838,-0.0934,-0.0954,-0.0995,-0.109,-0.1145,-0.1222,-0.1298,-0.1349,-0.1414,-0.1478,-0.1536,-0.1539,-0.1563,-0.1548,-0.1442,-0.1206,-0.1352,-0.1347,-0.105,-0.085,-0.0747,-0.0699,-0.1204,-0.1202,-0.1199,-0.0662,0,-0.0825,-0.0881,-0.0922,-0.0985,-0.104,-0.1108,-0.115,-0.1215,-0.1244,-0.1265,-0.1374,-0.1412,-0.148,-0.1487,-0.1461,-0.1436,-0.1334,-0.1376,-0.1276,-0.1315,-0.1074,-0.1042,-0.143,-0.143,-0.143,-0.1431,0,0,-0.0769,-0.0829,-0.087,-0.0915,-0.0958,-0.0985,-0.1038,-0.1071,-0.1148,-0.1182,-0.1172,-0.1331,-0.1338,-0.1397,-0.1407,-0.1449,-0.132,-0.1376,-0.1345,-0.1336,-0.1327,-0.1098,-0.1067,-0.1431,-0.1431,-0.1431,-0.1431,0,-0.0757,-0.0809,-0.0846,-0.0892,-0.0939,-0.0963,-0.0982,-0.1039,-0.1052,-0.1145,-0.1144,-0.1201,-0.1299,-0.1302,-0.1318,-0.1442,-0.1287,-0.1467,-0.1452,-0.135,-0.1341,-0.1332,-0.1105,-0.1076,-0.1432,-0.1432,-0.1432,0,-0.0717,-0.0743,-0.0772,-0.0836,-0.087,-0.0917,-0.0889,-0.0944,-0.0972,-0.0971,-0.1047,-0.1094,-0.1138,-0.121,-0.1248,-0.1208,-0.1208,-0.1299,-0.1302,-0.1311,-0.1204,-0.1197,-0.119,-0.1253,-0.1251,-0.125,0,0,-0.0696,-0.0744,-0.078,-0.0832,-0.0857,-0.0881,-0.0905,-0.0905,-0.0948,-0.0966,-0.0993,-0.1039,-0.1094,-0.1104,-0.118,-0.1247,-0.1156,-0.127,-0.1278,-0.1285,-0.1297,-0.1194,-0.1189,-0.1245,-0.1245,-0.1245,0,0,-0.0682,-0.0726,-0.0723,-0.0783,-0.0822,-0.0855,-0.0888,-0.0884,-0.0939,-0.0935,-0.0928,-0.0935,-0.1026,-0.1046,-0.098,-0.1109,-0.1088,-0.1103,-0.104,-0.1052,-0.1061,-0.1048,-0.0899,0,0,0,0,0,-0.0677,-0.0725,-0.0723,-0.0734,-0.0802,-0.0865,-0.0874,-0.0862,-0.0837,-0.0871,-0.0902,-0.0855,-0.1014,-0.0955,-0.0969,-0.0973,-0.1179,-0.119,-0.1201,-0.1145,-0.1157,-0.1167,0,0,0,0,0,0,-0.0681,-0.0697,-0.0721,-0.0756,-0.077,-0.0863,-0.0805,-0.0805,-0.0832,-0.0826,-0.0856,-0.0856,-0.0845,-0.0945,-0.0959,-0.0961,-0.0894,-0.1183,-0.1193,-0.1202,-0.1149,-0.1159,-0.1167,0,0,0,0,0,-0.0685,-0.0697,-0.0807,-0.0755,-0.0767,-0.0767,-0.0802,-0.0801,-0.083,-0.0831,-0.0831,-0.0815,-0.0847,-0.0858,-0.0953,-0.0955,-0.0884,-0.0889,-0.119,-0.1198,-0.1205,-0.1154,0,0,0,0,0,0,-0.0687,-0.0709,-0.0809,-0.0812,-0.0718,-0.0761,-0.0768,-0.0798,-0.0833,-0.0833,-0.0788,-0.0783,-0.085,-0.0858,-0.0866,-0.0952,-0.0876,-0.0882,-0.0885,-0.1196,-0.1202,-0.1207,0,0,0,0,0,0,-0.0701,-0.0712,-0.0811,-0.0766,-0.0764,-0.0756,-0.0762,-0.0827,-0.0834,-0.079,-0.0786,-0.0785,-0.0829,-0.0858,-0.0864,-0.0968,-0.087,-0.0875,-0.0879,-0.0881,-0.1201,-0.1206,0,0,0,0,0,0,-0.0706,-0.0715,-0.0765,-0.0764,-0.0762,-0.0804,-0.0814,-0.0882,-0.0799,-0.079,-0.079,-0.0785,-0.083,-0.0836,-0.0863,-0.0965,-0.0968,-0.0871,-0.0874,-0.0876,-0.0878,0,0,0,0,0,0,0,-0.0709,-0.0648,-0.0782,-0.0762,-0.0761,-0.0841,-0.0843,-0.0845,-0.0798,-0.0795,-0.0791,-0.0787,-0.0842,-0.0847,-0.0853,-0.0963,0,0,-0.087,-0.0873,0,0,0,0,0,0,0,0,-0.0644,-0.0647,-0.0782,-0.0782,-0.0783,-0.0842,-0.0843,-0.0844,-0.0798,-0.0795,-0.0792,-0.0789,-0.0843,-0.0848,-0.0852,0,0,0,0,0,0,0,0,0,0,0,0,0,0,0,-0.0782,-0.0782,0,-0.0842,-0.0843,-0.0844,-0.0797,-0.0795,-0.0792,-0.079,-0.0844,-0.0848,-0.0852,0,0,0,0,0,0,0,0,0,0,0,0,0,0,0,0,0,0,0,0,0,0,0,0,0,0,0,0,0,0,0,0,0,0,0,0,0,0,0,0,0,0,0,0,0,0,0,0,0,0,0,0,0,0,0,0,0,0,0,0,0,0,0,0,0,0,0,0,0]}]]]